GW2476 Weather Reports


time (UTC)temp
C
wind
direction
speed
KPH
gust
KPH
rain 1hr
cm
rain 24hr
cm
rain mn
cm
humidity
%
barometer
mb
20260506140131 13 1 0.0 1.6 0.00 0.28 0.28 99 1007.6
20260506135628 13 1 0.0 0.0 0.00 0.28 0.28 99 1007.4
20260506135124 13 1 0.0 1.6 0.00 0.28 0.28 99 1007.3
20260506134620 13 0 1.6 1.6 0.00 0.28 0.28 99 1007.5
20260506134116 13 28 0.0 1.6 0.00 0.28 0.28 99 1007.3
20260506133614 13 340 0.0 0.0 0.00 0.28 0.28 99 1007.5
20260506133110 13 338 1.6 1.6 0.00 0.28 0.28 99 1007.7
20260506132608 13 17 0.0 1.6 0.18 0.28 0.28 99 1007.4
20260506132105 13 65 3.2 3.2 0.18 0.28 0.28 99 1007.3
20260506131602 13 60 1.6 3.2 0.00 0.25 0.25 99 1007.5
20260506131058 12 50 0.0 1.6 0.13 0.25 0.25 99 1007.8
20260506130555 12 10 0.0 0.0 0.13 0.25 0.25 99 1007.9
20260506130053 12 10 0.0 1.6 0.18 0.23 0.23 99 1008.4
20260506125551 12 9 0.0 1.6 0.36 0.23 0.23 99 1008.3
20260506125048 12 10 0.0 1.6 0.30 0.20 0.20 99 1008.3
20260506124546 12 11 1.6 1.6 0.13 0.18 0.18 99 1008.3
20260506124044 12 22 0.0 1.6 0.18 0.15 0.15 99 1008.1
20260506123541 12 22 0.0 0.0 0.18 0.15 0.15 99 1008.3
20260506123040 12 22 0.0 1.6 0.13 0.13 0.13 99 1008.2
20260506122535 12 22 0.0 0.0 0.13 0.13 0.13 99 1008.3
20260506122034 12 25 0.0 0.0 0.18 0.10 0.10 99 1008.3
20260506121531 12 27 0.0 0.0 0.30 0.10 0.10 99 1008.1
20260506121027 12 26 0.0 0.0 0.13 0.08 0.08 99 1008.3
20260506120525 12 26 0.0 0.0 0.00 0.05 0.05 99 1008.3
20260506120022 12 26 0.0 0.0 0.18 0.05 0.05 99 1008.1
20260506115520 12 26 0.0 0.0 0.18 0.05 0.05 99 1008.1
20260506115019 12 20 0.0 1.6 0.00 0.03 0.03 99 1008.0
20260506114515 12 20 0.0 1.6 0.00 0.03 0.03 99 1008.1
20260506114014 12 17 0.0 1.6 0.00 0.03 0.03 99 1008.1
20260506113511 12 18 0.0 1.6 0.00 0.03 0.03 99 1008.0
20260506113009 12 18 0.0 1.6 0.00 0.03 0.03 99 1008.1
20260506112505 12 17 0.0 0.0 0.00 0.03 0.03 99 1008.3
20260506112003 12 18 0.0 0.0 0.00 0.03 0.03 99 1008.2
20260506111501 12 17 0.0 0.0 0.00 0.03 0.03 99 1008.4
20260506110957 11 17 0.0 0.0 0.00 0.03 0.03 99 1008.7
20260506110455 11 17 0.0 0.0 0.00 0.03 0.03 99 1008.5
20260506105951 11 358 1.6 1.6 0.00 0.03 0.03 99 1008.3
20260506105448 11 26 0.0 1.6 0.00 0.03 0.03 99 1008.0
20260506104945 11 27 0.0 0.0 0.00 0.03 0.03 99 1008.2
20260506104443 11 27 0.0 0.0 0.00 0.03 0.03 99 1008.2
20260506103941 11 25 0.0 1.6 0.00 0.03 0.03 99 1008.1
20260506103438 11 26 0.0 1.6 0.00 0.03 0.03 99 1008.1
20260506102935 11 25 0.0 0.0 0.00 0.03 0.03 99 1008.1
20260506102433 11 25 0.0 0.0 0.00 0.03 0.03 99 1008.3
20260506101930 11 25 0.0 0.0 0.00 0.03 0.03 99 1008.5
20260506101426 11 25 0.0 0.0 0.00 0.03 0.03 99 1008.4
20260506100924 11 25 0.0 0.0 0.00 0.03 0.03 99 1008.3
20260506100422 11 26 0.0 0.0 0.00 0.03 0.03 99 1008.1
20260506095920 11 25 0.0 0.0 0.00 0.03 0.03 99 1008.2
20260506095418 11 25 0.0 0.0 0.13 0.03 0.03 99 1008.1
20260506094914 11 25 0.0 0.0 0.13 0.03 0.03 99 1008.1
20260506094413 11 25 0.0 0.0 0.00 0.00 0.00 99 1007.8
20260506093910 11 25 0.0 0.0 0.00 0.00 0.00 99 1008.0
20260506093407 11 25 0.0 0.0 0.00 0.00 0.00 99 1007.9
20260506092905 11 25 0.0 0.0 0.00 0.00 0.00 99 1007.8
20260506092403 11 25 0.0 0.0 0.00 0.00 0.00 99 1007.9
20260506091859 11 25 0.0 0.0 0.00 0.00 0.00 99 1008.1
20260506091357 11 25 0.0 0.0 0.00 0.00 0.00 99 1008.0
20260506090854 11 25 0.0 0.0 0.00 0.00 0.00 99 1008.2
20260506090352 11 25 0.0 0.0 0.00 0.00 0.00 99 1008.0
20260506085848 12 25 0.0 0.0 0.00 0.00 0.00 99 1008.2
20260506085345 12 25 0.0 0.0 0.00 0.00 0.00 99 1008.3
20260506084841 12 26 0.0 0.0 0.00 0.00 0.00 99 1008.4
20260506084338 12 26 1.6 1.6 0.00 0.00 0.00 98 1008.1
20260506083835 12 19 0.0 0.0 0.00 0.00 0.00 97 1008.5
20260506083332 12 19 0.0 0.0 0.00 0.00 0.00 97 1008.7
20260506082830 12 19 0.0 1.6 0.00 0.00 0.00 96 1008.5
20260506082326 12 17 0.0 1.6 0.00 0.00 0.00 96 1008.7
20260506081822 12 17 0.0 0.0 0.00 0.00 0.00 95 1008.8
20260506081320 12 21 0.0 0.0 0.00 0.00 0.00 95 1008.9
20260506080818 12 21 0.0 0.0 0.00 0.00 0.00 94 1008.9
20260506080314 12 21 0.0 0.0 0.00 0.00 0.00 94 1008.7
20260506073258 12 23 0.0 1.6 0.00 0.00 0.00 93 1008.7
20260506072755 12 18 0.0 1.6 0.00 0.00 0.00 94 1008.2
20260506072252 12 18 0.0 3.2 0.00 0.00 0.00 95 1008.2
20260506071750 12 20 1.6 3.2 0.00 0.00 0.00 96 1008.2
20260506071248 12 5 0.0 0.0 0.00 0.00 0.00 96 1008.3
20260506070744 12 5 0.0 1.6 0.00 0.00 0.00 96 1008.4
20260506070241 12 5 1.6 1.6 0.00 0.00 0.00 96 1008.2
20260506062218 12 5 0.0 0.0 0.00 0.00 0.00 95 1008.8
20260506061714 12 5 0.0 0.0 0.00 0.00 0.00 94 1009.0
20260506061212 12 5 0.0 0.0 0.00 0.00 0.00 94 1009.1
20260506060711 13 5 0.0 0.0 0.00 0.00 0.00 94 1009.2
20260506060207 13 5 0.0 0.0 0.00 0.00 0.00 93 1009.2
20260506051139 12 23 0.0 1.6 0.00 0.00 0.00 94 1009.8
20260506050638 13 22 0.0 0.0 0.00 0.00 0.00 94 1009.9
20260506050134 13 22 0.0 0.0 0.00 0.00 0.00 93 1009.8
20260506045127 13 23 0.0 0.0 0.00 0.00 0.00 93 1010.0
20260506044625 13 22 0.0 1.6 0.00 0.00 0.00 93 1010.0
20260506044122 13 8 1.6 3.2 0.00 0.00 0.00 93 1009.9
20260506043619 13 52 1.6 3.2 0.00 0.00 0.00 92 1009.9
20260506043117 13 10 1.6 4.8 0.00 0.00 0.00 93 1009.9
20260506042616 13 25 1.6 1.6 0.00 0.00 0.00 94 1009.8
20260506042114 13 1 0.0 1.6 0.00 0.00 0.00 94 1009.7
20260506041612 13 2 0.0 1.6 0.00 0.00 0.00 94 1009.8
20260506041108 13 2 0.0 0.0 0.00 0.00 0.00 93 1009.8
20260506040607 13 2 0.0 1.6 0.00 0.00 0.00 93 1010.0
20260506035600 14 1 0.0 1.6 0.00 0.03 0.03 92 1010.1
20260506035056 14 3 0.0 0.0 0.00 0.03 0.03 91 1010.2
20260506034553 15 3 0.0 1.6 0.00 0.03 0.03 90 1010.3
20260506034050 15 1 1.6 1.6 0.00 0.03 0.03 90 1010.2
20260506033548 15 359 0.0 1.6 0.00 0.03 0.03 89 1010.3
20260506033044 15 21 0.0 8.0 0.00 0.03 0.03 90 1010.1
20260506032542 15 1 3.2 4.8 0.00 0.03 0.03 90 1010.1
20260506032038 15 11 1.6 8.0 0.00 0.03 0.03 91 1010.2
20260506031536 15 33 1.6 4.8 0.00 0.03 0.03 92 1010.2
20260506031033 15 312 4.8 4.8 0.00 0.03 0.03 93 1009.9
20260506030531 15 27 3.2 4.8 0.00 0.03 0.03 96 1010.1
20260506030028 15 346 1.6 4.8 0.00 0.03 0.03 96 1009.9
20260506025525 15 2 1.6 3.2 0.00 0.03 0.03 96 1009.9
20260506025021 15 25 0.0 1.6 0.00 0.03 0.03 96 1009.7
20260506024518 15 11 1.6 3.2 0.00 0.03 0.03 97 1009.6
20260506024014 14 31 0.0 1.6 0.00 0.03 0.03 98 1009.8
20260506023510 14 23 1.6 1.6 0.00 0.03 0.03 97 1009.6
20260506023009 14 23 1.6 1.6 0.00 0.03 0.03 96 1009.6
20260506022506 14 23 0.0 1.6 0.00 0.03 0.03 96 1009.5
20260506022003 15 23 0.0 0.0 0.00 0.03 0.03 95 1009.5
20260506021500 15 22 0.0 1.6 0.00 0.03 0.03 95 1009.5
20260506020957 15 23 0.0 0.0 0.00 0.03 0.03 95 1009.2
20260506020455 15 23 0.0 0.0 0.00 0.03 0.03 95 1009.2
20260506015952 15 23 0.0 0.0 0.00 0.03 0.03 94 1009.1
20260506015449 15 22 1.6 1.6 0.00 0.03 0.03 94 1009.1
20260506014946 16 23 0.0 0.0 0.00 0.03 0.03 93 1009.2
20260506014443 16 22 0.0 1.6 0.00 0.03 0.03 93 1008.9
20260506013939 16 23 0.0 1.6 0.00 0.03 0.03 92 1009.1
20260506013438 16 23 0.0 0.0 0.00 0.03 0.03 92 1008.9
20260506012933 16 23 0.0 1.6 0.00 0.03 0.03 91 1009.0
20260506012430 16 22 0.0 0.0 0.00 0.03 0.03 91 1008.9
20260506011927 16 22 0.0 1.6 0.00 0.03 0.03 91 1008.9
20260506011425 16 22 0.0 1.6 0.00 0.03 0.03 91 1009.0
20260506010921 16 22 0.0 0.0 0.00 0.03 0.03 91 1008.9
20260506010420 17 22 1.6 1.6 0.00 0.03 0.03 90 1008.9
20260506005916 17 22 0.0 0.0 0.00 0.03 0.03 89 1008.8
20260506005414 17 22 0.0 0.0 0.00 0.03 0.03 89 1008.7
20260506004909 17 22 0.0 0.0 0.00 0.03 0.03 88 1008.8
20260506004407 16 22 0.0 0.0 0.00 0.03 0.03 89 1008.5
20260506003903 17 23 1.6 3.2 0.00 0.03 0.03 89 1008.5
20260506003359 17 22 0.0 0.0 0.00 0.03 0.03 87 1008.4
20260506002856 17 22 0.0 0.0 0.00 0.03 0.03 87 1008.4
20260506002352 17 22 0.0 0.0 0.00 0.03 0.03 87 1008.2
20260506001848 17 22 0.0 1.6 0.00 0.03 0.03 88 1008.4
20260506001345 18 23 0.0 1.6 0.00 0.03 0.03 86 1008.3
20260506000842 18 22 0.0 1.6 0.00 0.03 0.03 86 1008.2
20260506000340 18 22 0.0 1.6 0.00 0.03 0.03 83 1008.2
20260505235836 18 10 0.0 1.6 0.00 0.03 0.03 84 1008.3
20260505235334 18 19 0.0 1.6 0.00 0.03 0.03 86 1008.0
20260505234830 18 19 1.6 1.6 0.00 0.03 0.03 85 1007.9
20260505234329 18 19 0.0 1.6 0.00 0.03 0.03 86 1007.9
20260505233825 18 20 1.6 1.6 0.00 0.03 0.03 86 1007.9
20260505233323 18 19 0.0 1.6 0.00 0.03 0.03 85 1008.0
20260505232820 18 20 0.0 1.6 0.00 0.03 0.03 84 1007.8
20260505232318 19 19 0.0 0.0 0.00 0.03 0.03 83 1008.0
20260505231814 19 19 0.0 1.6 0.00 0.03 0.03 81 1008.1
20260505231312 19 20 0.0 1.6 0.00 0.03 0.03 81 1008.1
20260505230810 20 20 0.0 0.0 0.00 0.03 0.03 78 1007.9
20260505230307 20 20 0.0 1.6 0.00 0.03 0.03 77 1008.2
20260505225803 20 19 0.0 1.6 0.00 0.03 0.03 76 1008.2
20260505225301 20 19 0.0 1.6 0.00 0.03 0.03 73 1008.1
20260505224755 20 18 1.6 1.6 0.00 0.03 0.03 72 1008.1
20260505224254 20 21 0.0 8.0 0.00 0.03 0.03 72 1007.9
20260505223751 20 39 1.6 3.2 0.00 0.03 0.03 73 1007.9
20260505223247 20 29 0.0 3.2 0.00 0.03 0.03 72 1007.6
20260505222743 20 12 3.2 8.0 0.00 0.03 0.03 71 1007.8
20260505222240 20 26 0.0 8.0 0.00 0.03 0.03 72 1007.7
20260505221737 20 35 0.0 4.8 0.00 0.03 0.03 71 1007.8
20260505221233 20 47 1.6 4.8 0.00 0.03 0.03 69 1007.7
20260505220730 20 36 4.8 11.3 0.00 0.03 0.03 69 1007.5
20260505220228 20 358 3.2 8.0 0.00 0.03 0.03 69 1007.7
20260505215726 21 21 1.6 4.8 0.00 0.03 0.03 70 1007.6
20260505215223 21 28 3.2 11.3 0.00 0.03 0.03 70 1007.5
20260505214721 21 2 3.2 12.9 0.00 0.03 0.03 69 1007.5
20260505214218 21 13 8.0 16.1 0.00 0.03 0.03 68 1007.5
20260505213715 22 273 4.8 11.3 0.00 0.03 0.03 65 1007.5
20260505213213 22 301 3.2 16.1 0.00 0.03 0.03 60 1007.9
20260505212708 23 326 1.6 8.0 0.00 0.03 0.03 59 1007.1
20260505212206 22 252 11.3 27.4 0.00 0.03 0.03 48 1006.6
20260505211703 21 29 3.2 3.2 0.00 0.03 0.03 66 1006.6
20260505211200 22 53 0.0 4.8 0.00 0.03 0.03 67 1006.4
20260505210656 22 15 0.0 3.2 0.00 0.03 0.03 64 1006.3
20260505210153 22 359 0.0 1.6 0.00 0.03 0.03 64 1006.4
20260505205651 22 14 3.2 3.2 0.00 0.03 0.03 61 1006.3
20260505205149 22 25 0.0 1.6 0.00 0.03 0.03 65 1006.4
20260505204645 22 345 3.2 3.2 0.00 0.03 0.03 58 1006.6
20260505204143 21 354 3.2 8.0 0.00 0.03 0.03 65 1006.7
20260505203640 20 348 3.2 3.2 0.18 0.03 0.03 68 1006.7
20260505203137 20 39 1.6 4.8 0.00 0.00 0.00 70 1007.3
20260505202632 22 330 8.0 14.5 0.00 0.00 0.00 59 1007.5
20260505202128 22 331 3.2 4.8 0.00 0.00 0.00 56 1006.9
20260505201625 23 350 6.4 11.3 0.00 0.00 0.00 54 1007.0
20260505201123 25 345 1.6 4.8 0.00 0.00 0.00 45 1006.7
20260505200621 25 346 1.6 3.2 0.00 0.00 0.00 43 1006.6
20260505200118 25 336 1.6 3.2 0.00 0.00 0.00 44 1006.7
20260505195614 25 24 3.2 8.0 0.00 0.00 0.00 45 1006.7
20260505195111 25 227 4.8 16.1 0.00 0.00 0.00 41 1006.5
20260505194608 25 256 4.8 8.0 0.00 0.00 0.00 46 1006.5
20260505194104 25 239 6.4 12.9 0.00 0.00 0.00 43 1006.5
20260505193601 25 273 6.4 12.9 0.00 0.00 0.00 43 1006.4
20260505193058 25 234 1.6 8.0 0.00 0.00 0.00 45 1006.2
20260505192557 25 358 1.6 8.0 0.00 0.00 0.00 46 1006.4
20260505192054 25 58 0.0 9.7 0.00 0.00 0.00 44 1006.3
20260505191552 25 191 6.4 8.0 0.00 0.00 0.00 45 1006.1
20260505191050 26 283 4.8 11.3 0.00 0.00 0.00 44 1005.9
20260505190544 26 234 6.4 9.7 0.00 0.00 0.00 48 1006.1
20260505190040 25 159 6.4 9.7 0.00 0.00 0.00 43 1006.2
20260505185537 26 240 8.0 9.7 0.00 0.00 0.00 43 1006.3
20260505185034 25 162 4.8 12.9 0.00 0.00 0.00 45 1006.5
20260505184531 26 231 4.8 11.3 0.00 0.00 0.00 43 1006.5
20260505184027 26 265 6.4 9.7 0.00 0.00 0.00 41 1006.6
20260505183524 26 216 6.4 9.7 0.00 0.00 0.00 41 1006.3
20260505183021 27 204 6.4 9.7 0.00 0.00 0.00 41 1006.7
20260505182512 26 277 11.3 17.7 0.00 0.00 0.00 40 1006.8
20260505182009 26 249 4.8 12.9 0.00 0.00 0.00 43 1006.9
20260505181505 26 228 9.7 17.7 0.00 0.00 0.00 39 1007.0
20260505181003 26 211 4.8 9.7 0.00 0.00 0.00 43 1007.1
20260505180458 26 168 11.3 17.7 0.00 0.00 0.00 42 1007.2
20260505175955 26 225 14.5 20.9 0.00 0.00 0.00 44 1007.2
20260505175451 26 242 8.0 9.7 0.00 0.00 0.00 45 1007.2
20260505174948 25 337 1.6 4.8 0.00 0.00 0.00 45 1007.2
20260505174445 25 249 4.8 12.9 0.00 0.00 0.00 47 1007.5
20260505173941 25 209 6.4 17.7 0.00 0.00 0.00 47 1007.6
20260505173438 25 206 9.7 12.9 0.00 0.00 0.00 45 1007.8
20260505172935 25 243 6.4 11.3 0.00 0.00 0.00 46 1007.7
20260505172433 25 168 8.0 12.9 0.00 0.00 0.00 48 1007.5
20260505171932 25 114 6.4 25.7 0.00 0.00 0.00 49 1007.7
20260505171430 25 201 9.7 11.3 0.00 0.00 0.00 48 1007.8
20260505170926 25 213 9.7 9.7 0.00 0.00 0.00 47 1007.5
20260505170423 25 196 8.0 9.7 0.00 0.00 0.00 49 1007.4
20260505165918 25 268 6.4 8.0 0.00 0.00 0.00 47 1007.3
20260505165415 25 205 3.2 9.7 0.00 0.00 0.00 49 1007.2
20260505164910 25 256 3.2 9.7 0.00 0.00 0.00 48 1007.4
20260505164407 25 195 4.8 9.7 0.00 0.00 0.00 53 1007.3
20260505163905 26 252 6.4 14.5 0.00 0.00 0.00 48 1007.3
20260505163404 25 286 1.6 8.0 0.00 0.00 0.00 47 1007.7
20260505162902 25 206 8.0 11.3 0.00 0.00 0.00 48 1007.7
20260505162357 25 139 9.7 14.5 0.00 0.00 0.00 50 1007.5
20260505161855 25 230 11.3 12.9 0.00 0.00 0.00 48 1007.9
20260505161352 25 261 4.8 11.3 0.00 0.00 0.00 50 1007.9
20260505160849 23 218 4.8 11.3 0.00 0.00 0.00 51 1008.2
20260505160347 23 223 8.0 14.5 0.00 0.00 0.00 51 1008.1
20260505153326 24 170 3.2 11.3 0.00 0.00 0.00 54 1008.4
20260505152822 24 187 6.4 9.7 0.00 0.00 0.00 51 1008.5
20260505152319 25 171 8.0 16.1 0.00 0.00 0.00 51 1008.4
20260505151814 24 243 4.8 9.7 0.00 0.00 0.00 51 1008.4
20260505151311 24 159 6.4 12.9 0.00 0.00 0.00 50 1008.3
20260505150808 24 158 3.2 12.9 0.00 0.00 0.00 52 1008.2
20260505150305 23 176 6.4 14.5 0.00 0.00 0.00 51 1008.3